Location: Cabeza de los Veneras
(40.2000°N, 5.2000°W)
Time: 02:21:34
(UTC+00:00)

SL-16 R/B - Pass Details

Date: 18 April 2024
Orbit: 841 x 845 km, 71.0° (Epoch: 25 May)

Event Time Altitude Azimuth Distance (km) Brightness Sun altitude
Exits shadow 23:23:21 19° 37° (NE) 1,909 4.3 -36.9°
Drops below altitude 10° 23:24:54 10° 32° (NNE) 2,470 5.0 -37.0°
Sets 23:27:24 0° 28° (NNE) 3,410 5.9 -37.1°
